Overview Statistics Trail Chart Weather Telemetry Raw packets
 

This is the latest recevied weather packets stored in our database for station/object KE6YLF. If no packets are shown the sender has not sent any weather packets the latest 10 day(s).

<< 77 78 79 80 81 82 83 >>
Time Temp. Humidity Pressure Rain* Wind** Luminosity Snow
1788131427 38.89° C 36% 1073.4 hPa 0 mm - - -
1788131122 38.33° C 38% 1073.3 hPa 0 mm - - -
1788130817 38.89° C 37% 1073.5 hPa 0 mm - - -
1788130513 40° C 35% 1073.6 hPa 0 mm - - -
1788130212 39.44° C 34% 1073.7 hPa 0 mm - - -
1788129910 39.44° C 34% 1073.9 hPa 0 mm - - -
1788129607 40° C 33% 1073.8 hPa 0 mm - - -
1788129304 38.89° C 34% 1073.9 hPa 0 mm - - -
1788129015 39.44° C 33% 1073.9 hPa 0 mm - - -
1788128698 40° C 33% 1074.1 hPa 0 mm - - -
1788128394 39.44° C 33% 1074.1 hPa 0 mm - - -
1788128090 39.44° C 33% 1074.3 hPa 0 mm - - -
1788127785 38.89° C 33% 1074.2 hPa 0 mm - - -
1788127479 38.89° C 32% 1074.4 hPa 0 mm - - -
1788127177 39.44° C 32% 1074.3 hPa 0 mm - - -
1788126872 40° C 31% 1074.6 hPa 0 mm - - -
1788126567 39.44° C 32% 1074.9 hPa 0 mm - - -
1788126262 38.89° C 32% 1075 hPa 0 mm - - -
1788125956 39.44° C 31% 1075 hPa 0 mm - - -
1788125652 40° C 31% 1075 hPa 0 mm - - -
1788125347 38.89° C 32% 1075.2 hPa 0 mm - - -
1788125043 39.44° C 32% 1075.3 hPa 0 mm - - -
1788124742 38.33° C 33% 1075.3 hPa 0 mm - - -
1788124436 39.44° C 32% 1075.4 hPa 0 mm - - -
1788124132 37.78° C 34% 1075.4 hPa 0 mm - - -

* Rain latest hour (hover to see other rain measurements)
** Current wind speed in m/s (hover to see current wind gust speed)